Flag for Austria Weather past 2 weeks in Melk, Lower Austria, Austria

Now
69 °F

Mild.


Feels Like: 69 °F
Forecast: 53 / 78 °F
Wind: 1 mph from East

Location: Amstetten

Current Time: Jul 24, 2014 at 10:28:55 PM

Latest Report: Jul 24, 2014 at 9:00 PM


Visibility: N/A

Pressure: 29.84 "Hg

Humidity: 80%

Dew point: 62 °F

Location of MelkLocation

Historic Weather in Melk — Graph

°F

Melk temperature yesterday

Maximum temperature yesterday: 74 °F (at 6:00 PM)
Minimum temperature yesterday: 59 °F (at 11:00 PM)
Average temperature yesterday: 65 °F

Past Weeks' High & Low Weather Summary

 TemperatureHumidityPressure
High94 °F (Jul 20, 5:00 PM)100% (Jul 14, 2:00 AM)30.16 "Hg (Jul 14, 2:00 AM)
Low51 °F (Jul 10, 5:00 AM)33% (Jul 20, 5:00 PM)29.70 "Hg (Jul 20, 6:00 PM)
Average68 °F75%29.93 "Hg
* Reported Jul 9 9:00 PM — Jul 24 9:00 PM, Melk, Weather by CustomWeather, © 2014

Note: Actual official high and low records may vary slightly from our data, if they occured in-between our weather recording intervals... More about our weather records

Advertising

Melk weather history for previous 24 hours

 ConditionsComfort  
Time TempWeatherWind HumidityBarometerVisibility
9:00 PM
Jul 24
69 °FMild.1 mph80%29.84 "HgN/A
8:00 PM75 °FMild.No wind55%29.82 "HgN/A
7:00 PM79 °FWarm.1 mph43%29.81 "HgN/A
6:00 PM82 °FPleasantly warm.1 mph39%29.80 "HgN/A
5:00 PM80 °FWarm.1 mph40%29.81 "HgN/A
4:00 PM79 °FWarm.2 mph41%29.83 "HgN/A
3:00 PM77 °FMild.2 mph47%29.84 "HgN/A
2:00 PM77 °FMild.2 mph51%29.85 "HgN/A
1:00 PM76 °FMild.1 mph55%29.85 "HgN/A
12:00 PM72 °FMild.2 mph59%29.87 "HgN/A
11:00 AM69 °FMild.1 mph69%29.88 "HgN/A
10:00 AM64 °FMild.2 mph79%29.90 "HgN/A
9:00 AM58 °FCool.No wind97%29.93 "HgN/A
8:00 AM57 °FFog.1 mph100%29.93 "HgN/A
7:00 AM55 °FCool.1 mph99%29.93 "HgN/A
6:00 AM55 °FCool.1 mph98%29.94 "HgN/A
5:00 AM54 °FCool.1 mph98%29.93 "HgN/A
4:00 AM55 °FCool.1 mph98%29.93 "HgN/A
3:00 AM56 °FCool.1 mph96%29.93 "HgN/A
2:00 AM56 °FFog.2 mph98%29.94 "HgN/A
1:00 AM58 °FCool.1 mph98%29.96 "HgN/A
12:00 AM58 °FCool.1 mph97%29.96 "HgN/A
11:00 PM
Jul 23
59 °FCool.1 mph98%29.97 "HgN/A
10:00 PM61 °FCool.1 mph96%29.96 "HgN/A
Weather by CustomWeather, © 2014

See weather overviewHow to use our weather pages